Flag for USA

Past Weather in Fairfield Public Use Area, Missouri, USA — Yesterday and Last 2 Weeks

Now
38 °F

Fog.


Feels Like: 29 °F
Forecast: 54 / 38 °F
Wind: 15 mph from South

Location: Springfield Regional Airport

Current Time: Dec 8, 2019 at 9:39:08 am

Latest Report: Dec 8, 2019 at 7:52 am


Visibility: 4 mi

Pressure: 29.96 "Hg

Humidity: 93%

Dew Point: 36 °F

Location of Fairfield Public Use AreaLocation

Past Weather in Fairfield Public Use Area — Graph

°F

Fairfield Public Use Area Temperature Yesterday

Maximum temperature yesterday: 50 °F (at 2:52 pm)
Minimum temperature yesterday: 23 °F (at 4:52 am)
Average temperature yesterday: 37 °F

High & Low Weather Summary for the Past Weeks

 TemperatureHumidityPressure
High66 °F (Nov 25, 1:52 pm)100% (Nov 29, 8:23 pm)30.50 "Hg (Nov 29, 8:23 pm)
Low23 °F (Dec 7, 4:52 am)30% (Nov 30, 2:52 pm)29.38 "Hg (Nov 26, 2:52 pm)
Average43 °F71%29.97 "Hg
* Reported Nov 23 7:25 am — Dec 8 7:52 am, Fairfield Public Use Area. Weather by CustomWeather, © 2019

Note: Actual official high and low records may vary slightly from our data, if they occured in-between our weather recording intervals... More about our weather records

Fairfield Public Use Area Weather History for the Previous 24 Hours

Scroll right to see more
 ConditionsComfort  
Time TempWeatherWind HumidityBarometerVisibility
7:52 am
Sun, Dec 8
38 °FFog.15 mph93%29.96 "Hg4 mi
6:52 am37 °FFog.16 mph93%29.97 "Hg6 mi
5:52 am37 °FClear.15 mph89%29.98 "Hg7 mi
4:52 am37 °FClear.16 mph86%30.01 "Hg8 mi
3:52 am37 °FClear.17 mph86%30.01 "Hg10 mi
2:52 am37 °FClear.13 mph86%30.05 "Hg10 mi
1:52 am37 °FClear.14 mph86%30.06 "Hg10 mi
12:52 am37 °FClear.10 mph82%30.09 "Hg10 mi
11:52 pm
Sat, Dec 7
39 °FClear.13 mph76%30.09 "Hg10 mi
10:52 pm40 °FClear.14 mph70%30.09 "Hg10 mi
9:52 pm41 °FClear.14 mph67%30.11 "Hg10 mi
8:52 pm40 °FClear.13 mph73%30.15 "Hg10 mi
7:52 pm40 °FClear.9 mph70%30.17 "Hg10 mi
6:52 pm40 °FClear.9 mph68%30.18 "Hg10 mi
5:52 pm42 °FClear.8 mph62%30.19 "Hg10 mi
4:52 pm44 °FSunny.8 mph55%30.20 "Hg10 mi
3:52 pm50 °FSunny.7 mph48%30.22 "Hg10 mi
2:52 pm50 °FSunny.7 mph46%30.23 "Hg10 mi
1:52 pm49 °FSunny.6 mph44%30.24 "Hg10 mi
12:52 pm47 °FSunny.8 mph50%30.27 "Hg10 mi
11:52 am44 °FSunny.N/A60%30.31 "Hg10 mi
10:52 am41 °FSunny.6 mph65%30.35 "Hg10 mi
9:52 am37 °FSunny.9 mph76%30.37 "Hg9 mi
Weather by CustomWeather, © 2019

See weather overview

Advertising